Regional Weather Roundup
Issued by NWS

Home | Current Version | Previous Version | Graphics & Text | Print | Product List | Glossary On
Versions: 1 2 3 4 5 6 7 8 9 10 11 12 13 14 15 16 17 18 19 20 21 22 23 24 25 26 27 28 29 30 31 32 33 34 35 36 37 38 39 40 41 42 43 44 45 46 47 48 49 50
000
ASUS45 KSLC 261810
RWRUT

UTAH REGIONAL WEATHER ROUNDUP
NATIONAL WEATHER SERVICE SALT LAKE CITY UT
1200 PM MDT TUE AUG 26 2014

UTZ001>011-023>025-261900-

NORTHERN UTAH

CITY           SKY/WX    TMP DP  RH WIND       PRES   REMARKS
HILL AFB       PTSUNNY   72  51  47 VRB3      30.18F
LOGAN          SUNNY     70  55  59 CALM      30.18R
OGDEN          MOSUNNY   72  48  42 E5        30.16F
PROVO AIRPORT  PTSUNNY   68  55  64 W6        30.18F
SALT LAKE CITY PTSUNNY   72  51  47 NW5       30.14F
VERNAL         CLOUDY    67  54  63 CALM      30.24F
WENDOVER       SUNNY     72  41  33 SW3       30.16S
HEBER CITY     MOSUNNY   66  48  52 CALM      30.23F
WEST JORDAN    SUNNY     73  57  56 CALM      30.17F

$$

UTZ012>022-026-027-261900-

SOUTHERN UTAH

CITY           SKY/WX    TMP DP  RH WIND       PRES   REMARKS
BRYCE CANYON   CLOUDY    63  45  51 S9        30.34F
CEDAR CITY     CLOUDY    73  46  38 SW15G22   30.18S
MILFORD        CLOUDY    74  46  36 SW5       30.15F
MOAB/CYNLANDS  SUNNY     78  49  35 S5        30.15R
PRICE          PTSUNNY   70  50  49 S6        30.24S
ST GEORGE      PTCLDY    82  52  34 S9        30.04F
KANAB            N/A     73  48  40 S8        30.22F

$$

REGIONAL REPORTS     COLORADO/ARIZONA

CITY           SKY/WX    TMP DP  RH WIND       PRES   REMARKS
CRAIG, CO      PTSUNNY   62  49  62 CALM      30.30F
GRAND JUNCTION CLOUDY    69  56  62 E10       30.18F
RIFLE          PTSUNNY   73  49  42 N3        30.22F
MONTROSE       PTSUNNY   79  43  27 NE5       30.24F
CORTEZ         CLOUDY    79  46  31 S5        30.27S
PAGE, AZ       CLOUDY    83  49  30 VRB5      30.15F
GRAND CANYON   CLOUDY    68  54  60 MISG        N/A
KINGMAN        CLOUDY    74  61  63 SE7G17    30.11F
FLAGSTAFF      LGT RAIN  64  54  69 CALM      30.36S

$$

REGIONAL REPORTS    NEVADA/IDAHO/WYOMING

CITY           SKY/WX    TMP DP  RH WIND       PRES   REMARKS
LAS VEGAS, NV  PTSUNNY   87  43  21 S20G28    29.94S
ELY            MOSUNNY   63  44  50 N9        30.20F
ELKO           SUNNY     69  43  38 CALM      30.17F
POCATELLO, ID  MOSUNNY   67  54  63 VRB6      30.20S
BURLEY         SUNNY     66  51  58 CALM      30.17F
EVANSTON, WY   MOSUNNY   63  47  55 CALM      30.31S
ROCK SPRINGS   MOSUNNY   64  44  48 W5        30.31S

$$


USA.gov is the U.S. government's official web portal to all federal, state and local government web resources and services.